TimeCST,TemperatureF,Dew PointF,Humidity,Sea Level PressureIn,VisibilityMPH,Wind Direction,Wind SpeedMPH,Gust SpeedMPH,PrecipitationIn,Events,Conditions,WindDirDegrees,DateUTC
12:56 AM,-0.9,-6.0,79,30.49,-9999.0,SSE,6.9,-,N/A,,Unknown,160,2013-02-21 06:56:00
1:56 AM,-5.1,-8.0,87,30.50,-9999.0,SE,9.2,-,N/A,,Unknown,140,2013-02-21 07:56:00
2:56 AM,-5.1,-9.0,83,30.50,-9999.0,SE,6.9,-,N/A,,Unknown,140,2013-02-21 08:56:00
3:56 AM,-5.1,-8.0,87,30.48,-9999.0,SSE,8.1,-,N/A,,Unknown,160,2013-02-21 09:56:00
4:56 AM,-9.0,-11.0,91,30.47,-9999.0,Calm,Calm,-,N/A,,Unknown,0,2013-02-21 10:56:00
5:56 AM,-6.0,-9.0,87,30.45,-9999.0,SSW,3.5,-,N/A,,Unknown,200,2013-02-21 11:56:00
6:56 AM,-4.0,-7.1,87,30.48,-9999.0,South,5.8,-,N/A,,Unknown,190,2013-02-21 12:56:00
7:56 AM,-2.9,-7.1,82,30.48,-9999.0,South,4.6,-,N/A,,Unknown,170,2013-02-21 13:56:00
8:56 AM,-4.0,-8.0,83,30.47,-9999.0,ESE,3.5,-,N/A,,Unknown,110,2013-02-21 14:56:00
9:56 AM,-0.9,-4.0,87,30.48,-9999.0,SSE,3.5,-,N/A,,Unknown,160,2013-02-21 15:56:00
10:56 AM,3.9,-0.9,80,30.47,-9999.0,South,8.1,-,N/A,,Unknown,180,2013-02-21 16:56:00
11:56 AM,6.1,1.0,80,30.46,-9999.0,South,10.4,-,N/A,,Unknown,180,2013-02-21 17:56:00
12:56 PM,8.1,1.9,76,30.42,-9999.0,SSE,8.1,-,N/A,,Unknown,150,2013-02-21 18:56:00
1:56 PM,9.0,3.0,77,30.40,-9999.0,South,5.8,-,N/A,,Unknown,170,2013-02-21 19:56:00
2:56 PM,10.9,5.0,77,30.37,-9999.0,ESE,5.8,-,N/A,,Unknown,120,2013-02-21 20:56:00
3:56 PM,12.9,6.1,74,30.35,-9999.0,ENE,5.8,-,N/A,,Unknown,70,2013-02-21 21:56:00
4:56 PM,14.0,8.1,77,30.35,-9999.0,ESE,3.5,-,N/A,,Unknown,110,2013-02-21 22:56:00
5:56 PM,14.0,9.0,80,30.35,-9999.0,ENE,3.5,-,N/A,,Unknown,60,2013-02-21 23:56:00
6:56 PM,12.9,9.0,84,30.33,-9999.0,NNE,4.6,-,N/A,,Unknown,30,2013-02-22 00:56:00
7:56 PM,12.0,8.1,84,30.31,-9999.0,NNW,5.8,-,N/A,,Unknown,340,2013-02-22 01:56:00
8:56 PM,12.0,8.1,84,30.30,-9999.0,NNW,6.9,-,N/A,,Unknown,340,2013-02-22 02:56:00
9:56 PM,12.9,8.1,81,30.28,-9999.0,NNW,8.1,-,N/A,,Unknown,330,2013-02-22 03:56:00
10:56 PM,14.0,8.1,77,30.25,-9999.0,NNW,8.1,-,N/A,,Unknown,330,2013-02-22 04:56:00
11:56 PM,12.9,8.1,81,30.23,-9999.0,NNW,9.2,-,N/A,,Unknown,340,2013-02-22 05:56:00